[ hide orbit diagram ]
For accurate long-term ephemerides, please instead use our Horizons system.This orbit viewer was implemented using two-body methods, and hence should not be used for determining accurate long-term trajectories (over several years or decades) or planetary encounter circumstances.
[ revert to old Java-based viewer ]
Orbital Elements at Epoch 2458600.5 (2019-Apr-27.0) TDB
Reference: JPL 13 (heliocentric ecliptic J2000)
Element | Value | Uncertainty (1-sigma) | Units |
e | .1592752889624676 | 5.9545e-08 | |
a | 2.415513188324181 | 2.2555e-08 | au |
q | 2.030781627261196 | 1.4968e-07 | au |
i | 7.901416264669667 | 7.8649e-06 | deg |
node | 82.91880779652017 | 5.2566e-05 | deg |
peri | 22.2236481713158 | 6.0904e-05 | deg |
M | 26.27495001171118 | 3.0862e-05 | deg |
tp | 2458500.418929038652 (2019-Jan-16.91892904) | 0.00011688 | TDB |
period | 1371.237072954526 3.75 | 1.9206e-05 5.258e-08 | d yr |
n | .262536659123669 | 3.6772e-09 | deg/d |
Q | 2.800244749387167 | 2.6147e-08 | au |
|
| | Orbit Determination Parameters
Additional Information
|
[ show covariance matrix ]
Physical Parameter Table
Parameter |
Symbol |
Value |
Units |
Sigma |
Reference |
Notes |
absolute magnitude |
H |
17.1 |
|
n/a |
MPO419032 |
|
|
413357 (2003 YY77) Discovered 2003-Dec-18 by LINEAR at Socorro |
Reference: | Last Updated: 2014-11-10 |
|
|